Reflectivity
-20 -18 -1 4 -20 -20 8 18 14 5 11 -10 -20 -20 -20 -20 -20 -20 -4 -14 -4 -20 -20 10 2 -20 -20 -20 -20 -20 -20 -20 -20 -20 -20 -20 -1 4 3 5 9 -20 -17
-20 -20 -20 -20 17 -20 10 -8 11 0 -1 -20 -20 -20 -20 -20 -20 9 -20 -20 -20 -17 3 13 7 -20 -20 -20 -20 -18 -13 -20 -20 -20 -20 -20 -20 -20 -20 -20 -20 -20 -20
-20 -20 -20 -18 -20 -14 -14 9 6 -20 -20 -20 -20 -20 -20 -20 13 -20 -6 -20 -20 -20 -20 2 -5 -20 -20 -20 -20 -20 -20 -20 -20 -20 -20 -20 13 14 -9 -20 -20 -20 -11
-20 -20 -20 -20 -12 1 -19 -20 -13 -20 -20 -20 -20 -20 -20 5 -15 -12 -7 -20 -20 -20 -20 -20 -3 -20 -20 -20 -20 -20 -20 -20 -20 -20 -20 -20 -13 2 13 -19 1 24 13
-20 -20 -20 -6 -16 -20 -19 11 -20 -20 -20 -20 -20 -20 -20 15 -8 3 -20 -20 -20 -20 -20 -20 -20 -20 -20 -20 -20 -20 -20 -20 -20 -14 -20 6 10 9 -4 -11 2 -10 -0
-20 -20 3 -20 -20 -20 -19 -20 -20 -20 -20 -20 -20 -20 -20 -20 16 4 -20 -20 -20 -20 -20 -20 -20 -20 -20 -20 -20 -20 -20 -20 -20 -20 -20 -20 -20 -20 -20 -20 -20 -20 -20
-20 -20 -4 -20 2 -4 -20 -20 -20 -20 -20 -20 -6 9 -20 15 3 4 -20 -20 -20 -20 -20 -20 -20 -20 -20 -20 -20 -20 -20 -20 -20 -20 -20 -20 -20 -20 -20 -20 -20 -20 -20
-20 -20 5 3 -0 -20 -20 -20 -20 -20 -20 -20 6 9 -20 13 6 -8 -1 -20 -20 -20 -20 -20 -20 -20 -20 -20 -20 -20 -20 -20 -20 -20 -20 -20 -20 -20 -20 -20 -20 -20 -20
-20 -12 7 13 -10 -20 -20 -20 -20 -20 -20 -20 -20 9 8 9 14 3 -20 -20 -20 -20 -20 -20 -20 -20 -20 -20 -20 -20 -20 -20 -20 -20 -20 -20 -20 -20 -20 -20 -20 -20 -20
-16 -3 -5 8 2 3 -20 -20 -20 -20 -20 -20 -20 -20 -20 -20 -20 -3 -20 -20 -20 -20 -20 -20 -20 -20 -20 -20 -20 -20 -20 -20 -20 -20 -20 -20 -20 -20 -20 -20 -20 -20 -20
1 8 9 7 -9 -12 -3 -18 -20 -20 -20 -20 -20 -20 -20 -20 -20 -12 -17 -20 -20 -20 -20 -20 -20 -20 -20 -20 -20 -20 -20 -20 -20 -20 -20 -20 -20 -20 -20 -20 -20 -20 -20
10 -2 6 16 8 -15 -12 -14 -16 -20 -20 -20 -20 -20 -20 -20 -20 -20 -20 -20 -20 -20 -20 -20 -20 -20 -20 -20 -20 -20 -20 -20 -20 -20 -20 -20 -20 -16 -20 -20 -20 -20 -20
7 10 11 10 12 -0 1 -8 -8 -20 -20 -20 -20 -20 -20 -20 -20 -20 -20 -20 -20 -20 -20 -20 -20 -20 -20 -20 -20 -20 -20 -20 -20 -20 -20 -20 -20 -20 3 -20 -20 -20 -20
-20 -20 -20 -13 13 5 2 0 -6 -16 -20 -20 -20 -20 -20 -20 -20 -20 -20 -20 -20 -20 -20 -20 -20 -20 -20 -20 -20 -20 -20 -20 -20 -20 -20 -20 -20 -20 -11 0 -20 -20 -20
-1 -9 -13 2 3 6 8 4 2 -1 -20 -20 -20 -20 -20 -20 -20 -20 -20 -20 -20 -20 -20 -20 -20 -20 -20 -20 -20 -20 -20 -20 -20 -20 -20 -20 -20 -20 -20 -20 1 -16 -20
-20 -20 -12 -20 3 12 11 7 1 0 -14 -20 -20 -20 -20 -20 -20 -20 -20 -20 -20 -20 -20 -20 -20 -20 -20 -20 -20 -20 -20 -20 -20 -20 -20 -20 -20 -20 -20 -20 -20 4 14
-20 -20 -20 -20 2 8 7 3 1 -20 -20 -20 -20 -20 -20 -20 -20 -20 -20 -20 -20 -20 -20 -20 -20 -20 -20 -20 -20 -20 -20 -20 -20 -20 -20 -20 -20 -20 -20 -20 -20 -20 -0
-20 -20 -20 -4 -4 -20 -20 -20 -20 -20 -20 -20 -20 -20 -20 -20 -20 -20 -20 -20 -20 -20 -20 -20 -20 -20 -20 -20 -20 -20 -20 -20 -20 -20 -20 -20 -20 -20 -20 -20 -20 -20 -18
-20 -20 -20 -19 -7 1 -18 -20 -20 -20 -20 -20 -20 -20 -20 -20 -20 -20 -20 -20 -20 -20 -20 -20 -20 -20 -20 -20 -20 -20 -20 -20 -20 -20 -20 -20 -20 -20 -20 -20 -20 -20 -20
-20 -20 -20 -20 -20 -9 2 -12 -20 -20 -20 -20 -20 -20 -20 -20 -20 -20 -20 -20 -20 -20 -20 -20 -20 -20 -20 -20 -19 -20 -20 -20 -20 -20 -20 -20 -20 -20 -20 -20 -20 -20 -20
-20 -20 -20 -20 -20 -20 -20 0 -19 -20 -20 -20 -20 -20 -20 -20 -20 -20 -20 -20 -20 -20 -20 -20 -20 -20 -20 -20 -20 -20 -20 -20 -20 -20 -20 -20 -20 -20 -20 -20 -20 -20 -20
-20 -20 -20 -20 -20 -20 -20 -20 -20 -20 -20 -20 -20 -20 -20 -20 -20 -20 -20 -10 -2 -8 -20 -20 -20 -11 -20 -20 -9 -20 -17 -20 -20 -20 -20 -20 -20 -20 -20 -20 -20 -20 -20
-20 -20 -20 -20 -20 -20 -20 -20 -20 -20 -20 -20 -20 -20 -20 -20 -20 -20 -15 10 -5 -6 -6 -20 3 -4 -1 -9 -20 1 -5 -17 -20 -20 -20 -20 -20 -20 -20 -20 -20 -20 -20
8 7 -9 -20 -20 -20 -20 -20 -20 -20 -20 -20 -20 -20 -20 -20 -20 -20 -20 -20 -20 -8 -16 -12 -2 5 -16 -15 -10 -20 -6 -18 8 8 -20 -20 -20 -20 -20 -20 -20 -20 -20
1 -20 -20 -15 -20 -20 -20 -20 -20 -20 -20 -20 -20 -20 -20 -20 -20 -20 -20 -20 -20 -20 -20 -20 -20 -5 -9 9 6 -20 -17 -20 -20 -14 -20 -20 -20 -20 -20 -20 -20 -20 -20
-20 -20 -20 -20 -20 -20 -20 -20 -20 -20 -20 -20 -20 -20 -20 -20 -20 -20 -20 -20 -20 -20 -20 -20 -20 -20 -20 1 10 2 1 -9 -20 -20 -20 -20 -18 -20 -20 -20 -20 -20 -20
Wind_Speed
12 16 15 16 16 15 15 13 14 12 11 11 11 10 10 10 11 12 13 13 13 13 14 14 16 16 16 16 16 15 15 14 14 13 11 11 13 13 11 8 3 12 10
16 17 15 15 16 14 13 12 13 12 11 10 10 10 11 11 14 14 13 12 11 12 13 14 15 15 15 15 15 15 14 12 11 9 4 9 8 8 7 8 11 10 8
18 17 17 15 14 13 13 14 14 13 11 10 10 11 11 10 14 14 13 12 12 12 13 13 14 14 13 13 12 12 12 11 9 6 3 8 11 14 7 8 8 9 8
17 16 16 14 13 14 14 14 14 13 10 9 9 10 9 12 15 13 13 12 12 13 13 12 13 12 12 11 10 10 11 11 7 4 5 7 10 15 16 9 9 12 13
16 16 16 14 14 14 13 16 14 12 9 8 8 9 8 11 14 13 13 12 12 12 11 11 11 11 11 10 10 11 10 8 4 5 8 7 9 12 14 14 12 13 15
16 15 16 13 14 15 16 14 14 11 10 9 8 9 8 9 14 14 13 12 11 11 10 11 10 10 10 10 9 10 9 5 5 7 7 8 8 11 12 11 12 12 12
15 14 15 12 15 15 16 13 11 10 9 9 2 10 10 8 14 15 13 11 10 10 9 9 9 9 9 10 8 8 7 4 6 6 6 6 9 10 10 10 11 11 10
14 14 14 13 14 14 14 13 11 10 9 9 6 13 12 9 13 15 11 9 9 9 8 8 7 7 7 7 7 5 4 2 2 5 5 5 7 8 9 9 10 10 10
14 13 13 13 13 11 11 11 10 9 9 6 5 9 12 11 12 13 9 7 7 7 7 6 6 5 5 4 4 3 4 1 3 4 3 2 5 6 7 8 9 9 9
12 12 12 12 13 13 11 9 9 8 8 7 7 8 9 9 8 11 8 6 5 6 5 5 5 4 3 2 2 4 3 4 2 2 1 5 3 3 4 5 6 6 7
10 8 10 10 11 11 10 9 8 8 7 8 8 6 7 5 7 7 8 4 4 4 4 4 4 4 3 2 1 1 4 1 1 1 2 5 4 0 2 2 3 3 4
13 10 10 10 10 9 7 10 8 8 7 7 8 9 5 5 4 1 3 2 2 2 3 3 3 3 6 2 4 6 4 2 3 3 2 1 5 5 3 2 1 0 1
11 9 8 7 9 9 8 6 5 4 4 5 6 6 5 3 4 5 4 5 5 5 5 7 6 5 4 3 3 4 4 4 3 3 1 3 7 8 6 4 3 3 2
11 10 9 9 9 10 7 6 6 5 5 4 5 6 5 4 4 4 4 4 4 4 5 4 3 4 5 5 5 5 5 4 4 3 3 6 8 10 9 7 5 5 5
11 12 11 12 11 9 9 6 6 6 6 6 5 6 5 4 4 4 4 4 4 4 5 4 4 5 5 6 6 6 6 6 6 4 5 8 7 10 11 10 9 8 8
11 11 11 12 11 10 9 9 6 6 6 6 5 6 7 5 5 4 4 5 5 5 5 5 5 4 5 5 6 7 7 7 7 7 6 5 8 10 12 12 12 12 10
11 10 11 11 11 11 11 9 7 6 6 6 5 7 8 7 7 6 5 5 5 5 6 5 6 6 6 6 8 7 7 8 7 8 6 6 5 11 12 14 15 15 13
9 11 10 8 10 11 10 8 7 6 6 6 6 5 8 8 8 7 6 6 6 5 5 6 6 6 7 7 7 7 6 7 9 9 7 7 7 7 8 14 16 17 16
9 10 11 10 11 11 10 8 8 8 7 6 6 6 8 9 9 8 7 6 7 6 6 7 7 7 8 7 8 7 7 8 8 7 10 10 10 9 7 7 11 13 14
7 8 10 9 11 11 8 8 6 6 7 7 7 7 9 7 9 8 7 8 7 7 8 8 9 8 8 9 8 8 8 8 8 8 10 9 9 8 9 10 7 8 15
7 7 9 10 10 9 8 7 7 7 7 7 8 10 9 8 9 9 7 8 8 8 9 9 9 10 8 8 6 8 8 8 9 8 7 6 6 6 7 7 6 7 6
5 7 7 8 9 9 7 6 5 4 5 5 4 7 8 9 9 9 9 9 10 8 10 10 10 8 7 7 6 5 5 8 7 6 5 5 6 4 4 5 7 8 8
5 5 6 6 6 6 7 4 4 2 2 3 4 4 3 4 5 7 7 6 6 4 6 7 6 7 7 5 9 6 2 7 1 3 5 4 5 4 3 3 5 5 7
5 4 5 6 5 5 6 6 8 6 6 1 1 0 1 1 2 3 4 4 6 5 7 7 6 7 6 6 3 7 9 4 4 3 2 3 2 5 4 3 4 3 4
7 6 6 6 5 5 5 4 4 4 2 2 2 3 2 1 1 2 2 3 4 4 6 7 8 8 7 7 5 2 5 4 4 3 4 4 2 4 3 4 4 4 4
8 7 7 8 6 6 5 5 4 4 3 3 3 3 2 2 1 2 3 3 3 4 4 5 7 9 7 8 6 6 6 4 7 5 4 4 5 5 4 4 4 4 4
Wind_Direction
165 150 161 152 149 147 142 137 123 120 119 116 113 108 107 108 104 105 94 84 78 86 83 85 88 87 85 82 80 77 73 69 67 64 58 51 54 60 67 59 338 64 55
155 154 153 150 151 149 144 140 127 127 118 115 109 110 115 111 113 101 92 89 89 91 94 92 91 90 85 81 79 77 75 69 67 63 48 109 68 57 66 58 37 59 52
155 152 157 150 148 149 138 126 122 121 115 114 113 114 117 118 110 106 101 93 93 95 93 94 94 89 85 80 79 78 71 64 61 70 286 70 70 40 99 86 64 50 34
152 150 157 150 147 135 130 134 131 122 118 112 112 113 120 123 114 110 97 92 93 94 96 96 97 92 85 79 74 80 72 65 46 283 86 62 75 51 67 81 65 48 30
152 154 138 151 137 136 139 130 124 125 120 116 122 120 127 121 120 109 97 91 94 95 101 103 99 91 81 71 73 81 82 67 2 70 71 53 58 58 50 44 43 44 44
150 153 132 136 140 132 131 130 131 130 127 131 144 136 136 120 120 106 98 95 97 100 103 105 99 87 76 66 79 87 82 60 302 62 68 79 59 49 51 37 31 25 28
152 148 152 142 134 138 136 133 133 132 138 140 169 173 143 126 123 114 99 97 100 100 102 103 97 86 76 67 76 88 83 33 42 65 70 51 56 50 44 37 34 31 22
151 149 144 133 129 138 137 136 136 138 150 146 123 140 138 132 118 95 101 105 106 105 101 100 95 87 80 76 71 86 92 328 94 69 64 65 60 59 47 41 36 32 31
153 155 152 149 137 131 136 136 140 144 146 144 74 120 114 114 109 118 117 113 113 119 117 116 108 100 97 97 90 91 136 317 343 59 52 79 69 54 43 43 37 34 29
162 158 163 155 162 161 156 139 140 140 140 126 96 88 92 88 111 105 124 116 120 126 130 121 112 104 90 74 82 73 140 226 22 23 44 62 332 60 57 50 44 42 36
170 154 157 169 166 167 164 141 143 141 140 137 136 117 161 160 166 164 76 105 133 145 146 138 125 116 121 138 84 121 247 299 282 327 302 99 300 124 115 77 45 42 42
174 153 164 187 172 170 170 164 166 148 171 173 182 179 194 171 160 231 118 169 174 171 171 178 157 148 219 245 187 203 248 266 282 296 306 146 269 268 205 177 159 28 52
183 167 167 196 181 181 180 180 178 179 178 168 172 173 177 184 179 200 188 191 201 191 205 200 187 221 244 269 256 262 278 272 271 271 260 232 258 263 237 211 217 234 234
190 187 187 196 196 192 188 194 191 193 191 187 182 183 183 191 196 208 213 201 217 211 220 230 238 245 243 244 256 266 261 269 270 270 267 212 253 257 265 233 232 239 241
208 199 197 200 198 195 199 197 196 207 201 197 196 198 204 205 210 210 216 219 223 223 230 230 237 247 250 254 256 259 266 263 262 263 271 174 240 254 257 263 242 237 241
219 206 197 195 198 199 202 204 205 207 207 204 207 209 212 228 226 221 224 224 228 228 233 242 249 252 261 258 266 263 266 261 262 261 263 260 206 244 250 252 258 257 246
214 213 210 195 200 204 207 209 214 213 213 211 215 212 218 220 230 231 241 235 230 232 242 247 255 255 261 262 265 266 262 265 263 261 257 265 250 214 239 246 248 251 250
212 206 205 194 206 210 213 209 213 214 210 215 217 219 219 225 228 234 237 240 242 235 241 246 249 253 256 263 264 262 254 260 264 269 263 258 256 264 215 229 241 246 249
207 205 211 201 208 209 216 219 224 218 227 222 219 221 223 225 228 233 240 244 242 243 243 246 251 252 265 260 262 271 267 267 269 265 264 264 259 259 266 230 220 243 248
220 216 211 208 215 215 213 217 221 235 234 233 231 230 229 230 228 233 242 248 250 245 248 245 249 257 254 275 275 270 270 266 264 264 267 267 267 268 263 262 254 236 226
211 215 219 212 214 214 213 214 219 228 220 229 232 234 239 245 244 238 244 250 244 248 254 255 258 256 258 256 273 259 254 263 265 259 258 267 278 270 263 258 254 260 245
230 208 218 227 225 212 216 214 231 220 244 240 231 241 241 240 240 242 247 251 252 251 254 256 256 252 253 245 252 273 275 277 240 246 251 254 263 260 261 259 263 263 267
207 214 215 217 214 221 222 195 195 187 203 215 218 234 228 262 251 255 256 261 265 262 257 269 269 249 252 246 231 241 236 257 290 173 227 255 280 275 309 307 279 281 288
174 166 186 176 181 175 188 204 221 238 242 240 240 177 227 296 255 259 267 264 260 251 253 258 253 241 233 239 218 244 259 289 240 261 248 233 247 273 277 275 278 303 296
163 171 171 164 160 157 162 180 183 193 183 164 177 203 200 162 70 19 318 284 272 261 263 265 264 258 251 247 225 159 235 208 222 205 250 250 335 251 267 295 311 323 335
170 170 164 167 154 149 140 132 148 167 185 206 205 216 208 193 144 36 346 321 298 291 282 279 271 262 257 246 236 218 213 200 198 195 202 225 248 284 306 300 313 18 15